Regional Weather Roundup
Issued by NWS Sterling, VA

Home | Current Version | Previous Version | Graphics & Text | Print | Product List | Glossary On
Versions: 1 2 3 4 5 6 7 8 9 10 11 12 13 14 15 16 17 18 19 20 21 22 23 24 25 26 27 28
000
ASUS41 KLWX 241911
RWRLWX

REGIONAL WEATHER ROUNDUP
NATIONAL WEATHER SERVICE BALTIMORE MD/WASHINGTON DC
300 PM EDT SAT JUN 24 2017

Note: "FAIR" indicates few or no clouds below 12,000 feet
with no significant weather and/or obstructions to visibility.
 TC=TEMPERATURE CELSIUS

 * =Non NWS site. Station does not report precipitation (e.g. rain,
    snow, etc.), thunder, or fog.

DCZ001-MDZ009-015-VAZ040>042-051-053>054-242000-
WASHINGTON METRO

CITY           SKY/WX    TMP DP  RH WIND       PRES   REMARKS
WASHINGTON NAT PTSUNNY   89  60  37 W15       29.87S
DULLES         PTSUNNY   82  57  42 W9        29.89S
ANDREWS AFB    MOSUNNY   85  58  41 W8        29.87R
FT BELVOIR     PTSUNNY   87  57  36 SW8       29.88S
QUANTICO       MOSUNNY   89  59  36 NW7       29.88S
COLLEGE PARK*  PTSUNNY   84  57  39 W8        29.86F
LEESBURG*      MOSUNNY  N/A N/A N/A W7        29.91R
MANASSAS*      MOSUNNY   86  61  42 VRB7      29.90R
GAITHERSBURG*  MOSUNNY   82  61  48 W12G17    29.90S

$$

MDZ006>007-011-014-242000-
BALTIMORE METRO

CITY           SKY/WX    TMP DP  RH WIND       PRES   REMARKS
BWI AIRPORT    PTSUNNY   85  60  42 W15G21    29.86R
MD SCIENCE CTR   N/A     87  58  37 MISG      29.85R
MARTIN STATE   MOSUNNY   88  63  42 W13       29.86R
ANNAPOLIS      MOSUNNY   84  63  49 W8        29.86R
FORT MEADE*    MOSUNNY   82  61  47 NW10G18   29.89S

$$

MDZ012-015-019>023-242000-
MARYLAND EASTERN SHORE

CITY           SKY/WX    TMP DP  RH WIND       PRES   REMARKS
OCEAN CITY     SUNNY     87  65  47 W9G21     29.86S
SALISBURY      MOSUNNY   86  65  49 W15       29.86S
BAY BRIDGE AP* MOSUNNY   84  61  45 W13G20    29.86R
CAMBRIDGE*     SUNNY     86  63  45 W9G16     29.87S
EASTON*        MOSUNNY   86  61  42 NW12      29.90R

$$

MDZ017>025-242000-
SOUTHERN MARYLAND

CITY           SKY/WX    TMP DP  RH WIND       PRES   REMARKS
PATUXENT RIVER PTSUNNY   86  65  49 W5        29.87S
ST INIGOES     SUNNY     88  66  48 W8        29.87S HX  90
LEONARDTOWN*   MOSUNNY   86  63  45 W7        29.89R

$$

MDZ003>005-242000-
NORTH CENTRAL MARYLAND

CITY           SKY/WX    TMP DP  RH WIND       PRES   REMARKS
FREDERICK*     MOSUNNY   84  54  34 NW5G16    29.91S
HAGERSTOWN APT PTSUNNY   83  58  42 W15       29.89S
WESTMINSTER*   MOSUNNY   84  57  39 W13G22    29.89R

$$

MDZ501>502-242000-
WESTERN MARYLAND

CITY           SKY/WX    TMP DP  RH WIND       PRES   REMARKS
OAKLAND*       NOT AVBL
CUMBERLAND*    SUNNY     81  54  39 W10G18    29.95R

$$

VAZ025>031-242000-
SHENANDOAH VALLEY

CITY           SKY/WX    TMP DP  RH WIND       PRES   REMARKS
WINCHESTER*    CLOUDY    81  57  44 W9        29.92R
FRONT ROYAL*   CLOUDY    81  57  44 W5        29.92R
LURAY*         PTSUNNY   81  55  41 W5        29.94R
NEW MARKET*    PTSUNNY   82  55  39 SW6       29.93R
STAUNTON*      MOSUNNY   81  56  42 CALM      29.97R
WAYNESBORO*    MOSUNNY   80  60  51 SW9       29.97S

$$

WVZ021-048>050-054>055-242000-
EASTERN WEST VIRGINIA PANHANDLE

CITY           SKY/WX    TMP DP  RH WIND       PRES   REMARKS
MARTINSBURG    PTSUNNY   82  57  42 W16G23    29.90R
PETERSBURG*    MOSUNNY   83  57  41 W10       29.94F

$$

VAZ036>039-050-242000-
CENTRAL FOOTHILLS

CITY           SKY/WX    TMP DP  RH WIND       PRES   REMARKS
CHARLOTTESVILL MOSUNNY   85  62  46 CALM      29.92R
CULPEPER*      PTSUNNY   83  59  43 NW6       29.91S
ORANGE*        SUNNY     84  52  32 W9G16     29.90F
GORDONSVILLE*  SUNNY     85  59  41 NW7       29.90S
WARRENTON*     MOSUNNY   88  52  29 W6        29.90S

$$

VAZ055>057-242000-
NORTH AND CENTRAL PIEDMONT

CITY           SKY/WX    TMP DP  RH WIND       PRES   REMARKS
FREDERICKSBRG* MOSUNNY   87  66  48 NW9       29.87S
STAFFORD*      SUNNY     87  59  38 NW13      29.93R

$$

NCZ024-NYZ072-PAZ021-071-VAZ022-071-242000-
OTHER REGIONAL OBSERVATIONS

CITY           SKY/WX    TMP DP  RH WIND       PRES   REMARKS
NEW YORK CITY  SUNNY     83  57  41 VRB7      29.78R
PHILADELPHIA   MOSUNNY   87  56  34 W16G25    29.81R
PITTSBURGH     MOSUNNY   79  58  48 W17G26    29.90R
ROANOKE        CLOUDY    83  63  50 W9        29.98S
RICHMOND       PTSUNNY   89  66  46 W12G20    29.89F HX  91
RALEIGH        CLOUDY    88  71  57 CALM      29.94S HX  94

$$

ANZ530>537-242000-
MARINE OBSERVATIONS

STATION/POSITION TIME  TEMP    WIND        PRES
                       AIR SEA DIR/SP/G
                 (UTC) (F)     (DEG/KT/KT) (MB)
THOMAS PT LIGHT  1900   83 78  280/ 13/ 16   N/A
BALT KEY BRIDGE  1848   82     270/ 13/ 15 1010.5R
COVE POINT       1848   85     300/  5/ 11 1012.1R
LEWISETTA        1848   83 76   10/  5/  6 1011.6R
SOLOMONS ISLAND  1848   86 77  290/  5/  9   N/A
PINEY POINT      1848          350/  6/  7   N/A

$$





USA.gov is the U.S. government's official web portal to all federal, state and local government web resources and services.